Location: Rounton
(54.4000°N, 1.3500°W)
Time: 12:58:26
(UTC+00:00)

Transit 4A - Pass Details

Date: 02 December 2021
Orbit: 864 x 981 km, 66.8° (Epoch: 18 January)

Event Time Altitude Azimuth Distance (km) Brightness Sun altitude
Rises 21:34:43 0° 244° (WSW) 3,481 - -48.3°
Reaches altitude 10° 21:37:16 10° 250° (WSW) 2,559 - -48.6°
Maximum altitude 21:43:01 49° 325° (NW) 1,165 - -49.3°
Drops below altitude 10° 21:48:58 10° 39° (NE) 2,647 - -50.0°
Sets 21:51:39 0° 45° (NE) 3,611 - -50.2°
